owner,sensor,date,latitude,longitude,vertical_datum,mass_concentration_of_oxygen_in_sea_water,qcFlag 
SCCF RECON,ioos:station:SCCF:51:1,2010-01-01T00:00:00Z,26.5545,-82.1715,1.986,8.0,1111122 
SCCF RECON,ioos:station:SCCF:51:1,2010-01-01T01:00:00Z,26.5545,-82.1715,2.06,8.06,1111122 
SCCF RECON,ioos:station:SCCF:51:1,2010-01-01T02:00:00Z,26.5545,-82.1715,2.157,8.18,1111122 
SCCF RECON,ioos:station:SCCF:51:1,2010-01-01T03:00:00Z,26.5545,-82.1715,2.276,7.93,1111122 
SCCF RECON,ioos:station:SCCF:51:1,2010-01-01T04:00:00Z,26.5545,-82.1715,2.35,7.83,1111122 
SCCF RECON,ioos:station:SCCF:51:1,2010-01-01T05:00:00Z,26.5545,-82.1715,2.373,7.74,1111122 
SCCF RECON,ioos:station:SCCF:51:1,2010-01-01T06:00:00Z,26.5545,-82.1715,2.314,7.8,1111122 
SCCF RECON,ioos:station:SCCF:51:1,2010-01-01T07:00:00Z,26.5545,-82.1715,2.21,7.85,1111122 
SCCF RECON,ioos:station:SCCF:51:1,2010-01-01T08:00:00Z,26.5545,-82.1715,2.07,7.83,1111122 
SCCF RECON,ioos:station:SCCF:51:1,2010-01-01T09:00:00Z,26.5545,-82.1715,1.91,7.73,1111122 
SCCF RECON,ioos:station:SCCF:51:1,2010-01-01T10:00:00Z,26.5545,-82.1715,1.75,7.73,1111122 
SCCF RECON,ioos:station:SCCF:51:1,2010-01-01T11:00:00Z,26.5545,-82.1715,1.6,7.72,1111122 
SCCF RECON,ioos:station:SCCF:51:1,2010-01-01T12:00:00Z,26.5545,-82.1715,1.482,7.83,1111122 
SCCF RECON,ioos:station:SCCF:51:1,2010-01-01T13:00:00Z,26.5545,-82.1715,1.397,7.69,1111122 
SCCF RECON,ioos:station:SCCF:51:1,2010-01-01T14:00:00Z,26.5545,-82.1715,1.4,7.79,1111122 
SCCF RECON,ioos:station:SCCF:51:1,2010-01-01T15:00:00Z,26.5545,-82.1715,1.497,7.9,1111122 
SCCF RECON,ioos:station:SCCF:51:1,2010-01-01T16:00:00Z,26.5545,-82.1715,1.679,7.69,1111122 
SCCF RECON,ioos:station:SCCF:51:1,2010-01-01T17:00:00Z,26.5545,-82.1715,1.862,7.73,1111122 
SCCF RECON,ioos:station:SCCF:51:1,2010-01-01T18:00:00Z,26.5545,-82.1715,1.99,7.67,1111122 
SCCF RECON,ioos:station:SCCF:51:1,2010-01-01T19:00:00Z,26.5545,-82.1715,2.054,7.63,1111122 
SCCF RECON,ioos:station:SCCF:51:1,2010-01-01T20:00:00Z,26.5545,-82.1715,2.057,7.64,1111122 
SCCF RECON,ioos:station:SCCF:51:1,2010-01-01T21:00:00Z,26.5545,-82.1715,1.974,7.73,1111122 
SCCF RECON,ioos:station:SCCF:51:1,2010-01-01T22:00:00Z,26.5545,-82.1715,1.865,7.73,1111122 
SCCF RECON,ioos:station:SCCF:51:1,2010-01-01T23:00:00Z,26.5545,-82.1715,1.759,7.74,1111122 
SCCF RECON,ioos:station:SCCF:51:1,2010-01-02T00:00:00Z,26.5545,-82.1715,1.755,7.69,1111122 
SCCF RECON,ioos:station:SCCF:51:1,2010-01-02T01:00:00Z,26.5545,-82.1715,1.796,7.7,1111122 
SCCF RECON,ioos:station:SCCF:51:1,2010-01-02T02:00:00Z,26.5545,-82.1715,1.845,7.63,1111122 
SCCF RECON,ioos:station:SCCF:51:1,2010-01-02T03:00:00Z,26.5545,-82.1715,1.935,7.63,1111122 
SCCF RECON,ioos:station:SCCF:51:1,2010-01-02T04:00:00Z,26.5545,-82.1715,2.008,7.56,1111122 
SCCF RECON,ioos:station:SCCF:51:1,2010-01-02T05:00:00Z,26.5545,-82.1715,2.063,7.51,1111122 
SCCF RECON,ioos:station:SCCF:51:1,2010-01-02T06:00:00Z,26.5545,-82.1715,2.072,7.56,1111122 
SCCF RECON,ioos:station:SCCF:51:1,2010-01-02T07:00:00Z,26.5545,-82.1715,2.033,7.54,1111122 
SCCF RECON,ioos:station:SCCF:51:1,2010-01-02T08:00:00Z,26.5545,-82.1715,1.916,7.46,1111122 
SCCF RECON,ioos:station:SCCF:51:1,2010-01-02T09:00:00Z,26.5545,-82.1715,1.795,7.53,1111122 
SCCF RECON,ioos:station:SCCF:51:1,2010-01-02T10:00:00Z,26.5545,-82.1715,1.652,7.51,1111122 
SCCF RECON,ioos:station:SCCF:51:1,2010-01-02T11:00:00Z,26.5545,-82.1715,1.494,7.52,1111122 
SCCF RECON,ioos:station:SCCF:51:1,2010-01-02T12:00:00Z,26.5545,-82.1715,1.382,7.52,1111122 
SCCF RECON,ioos:station:SCCF:51:1,2010-01-02T13:00:00Z,26.5545,-82.1715,1.265,7.54,1111122 
SCCF RECON,ioos:station:SCCF:51:1,2010-01-02T14:00:00Z,26.5545,-82.1715,1.207,7.56,1111122 
SCCF RECON,ioos:station:SCCF:51:1,2010-01-02T15:00:00Z,26.5545,-82.1715,1.191,7.63,1111122 
SCCF RECON,ioos:station:SCCF:51:1,2010-01-02T16:00:00Z,26.5545,-82.1715,1.322,7.66,1111122 
SCCF RECON,ioos:station:SCCF:51:1,2010-01-02T17:00:00Z,26.5545,-82.1715,1.437,7.82,1111122 
SCCF RECON,ioos:station:SCCF:51:1,2010-01-02T18:00:00Z,26.5545,-82.1715,1.578,7.91,1111122 
SCCF RECON,ioos:station:SCCF:51:1,2010-01-02T19:00:00Z,26.5545,-82.1715,1.69,7.92,1111122 
SCCF RECON,ioos:station:SCCF:51:1,2010-01-02T20:00:00Z,26.5545,-82.1715,1.768,7.92,1111122 
SCCF RECON,ioos:station:SCCF:51:1,2010-01-02T21:00:00Z,26.5545,-82.1715,1.778,7.89,1111122 
SCCF RECON,ioos:station:SCCF:51:1,2010-01-02T22:00:00Z,26.5545,-82.1715,1.748,8.08,1111122 
SCCF RECON,ioos:station:SCCF:51:1,2010-01-02T23:00:00Z,26.5545,-82.1715,1.706,8.01,1111122 
SCCF RECON,ioos:station:SCCF:51:1,2010-01-03T00:00:00Z,26.5545,-82.1715,1.687,7.65,1111122 
SCCF RECON,ioos:station:SCCF:51:1,2010-01-03T01:00:00Z,26.5545,-82.1715,1.725,8.0,1111122 
SCCF RECON,ioos:station:SCCF:51:1,2010-01-03T02:00:00Z,26.5545,-82.1715,1.78,7.98,1111122 
SCCF RECON,ioos:station:SCCF:51:1,2010-01-03T03:00:00Z,26.5545,-82.1715,1.854,7.91,1111122 
SCCF RECON,ioos:station:SCCF:51:1,2010-01-03T04:00:00Z,26.5545,-82.1715,1.966,7.98,1111122 
SCCF RECON,ioos:station:SCCF:51:1,2010-01-03T05:00:00Z,26.5545,-82.1715,2.069,7.72,1111122 
SCCF RECON,ioos:station:SCCF:51:1,2010-01-03T06:00:00Z,26.5545,-82.1715,2.143,7.66,1111122 
SCCF RECON,ioos:station:SCCF:51:1,2010-01-03T07:00:00Z,26.5545,-82.1715,2.153,7.64,1111122 
SCCF RECON,ioos:station:SCCF:51:1,2010-01-03T08:00:00Z,26.5545,-82.1715,2.101,7.82,1111122 
SCCF RECON,ioos:station:SCCF:51:1,2010-01-03T09:00:00Z,26.5545,-82.1715,1.995,7.84,1111122 
SCCF RECON,ioos:station:SCCF:51:1,2010-01-03T10:00:00Z,26.5545,-82.1715,1.868,7.85,1111122 
SCCF RECON,ioos:station:SCCF:51:1,2010-01-03T11:00:00Z,26.5545,-82.1715,1.727,7.83,1111122 
SCCF RECON,ioos:station:SCCF:51:1,2010-01-03T12:00:00Z,26.5545,-82.1715,1.603,7.8,1111122 
SCCF RECON,ioos:station:SCCF:51:1,2010-01-03T13:00:00Z,26.5545,-82.1715,1.489,7.76,1111122 
SCCF RECON,ioos:station:SCCF:51:1,2010-01-03T14:00:00Z,26.5545,-82.1715,1.406,7.68,1111122 
SCCF RECON,ioos:station:SCCF:51:1,2010-01-03T15:00:00Z,26.5545,-82.1715,1.372,7.71,1111122 
SCCF RECON,ioos:station:SCCF:51:1,2010-01-03T16:00:00Z,26.5545,-82.1715,1.43,7.92,1111122 
SCCF RECON,ioos:station:SCCF:51:1,2010-01-03T17:00:00Z,26.5545,-82.1715,1.529,8.1,1111122 
SCCF RECON,ioos:station:SCCF:51:1,2010-01-03T18:00:00Z,26.5545,-82.1715,1.644,8.02,1111122 
SCCF RECON,ioos:station:SCCF:51:1,2010-01-03T19:00:00Z,26.5545,-82.1715,1.752,7.93,1111122 
SCCF RECON,ioos:station:SCCF:51:1,2010-01-03T20:00:00Z,26.5545,-82.1715,1.816,7.84,1111122 
SCCF RECON,ioos:station:SCCF:51:1,2010-01-03T21:00:00Z,26.5545,-82.1715,1.871,7.88,1111122 
SCCF RECON,ioos:station:SCCF:51:1,2010-01-03T22:00:00Z,26.5545,-82.1715,1.826,7.89,1111122 
SCCF RECON,ioos:station:SCCF:51:1,2010-01-03T23:00:00Z,26.5545,-82.1715,1.74,7.98,1111122 
SCCF RECON,ioos:station:SCCF:51:1,2010-01-04T00:00:00Z,26.5545,-82.1715,1.665,7.98,1111122 
SCCF RECON,ioos:station:SCCF:51:1,2010-01-04T01:00:00Z,26.5545,-82.1715,1.619,8.17,1111122 
SCCF RECON,ioos:station:SCCF:51:1,2010-01-04T02:00:00Z,26.5545,-82.1715,1.643,8.04,1111122 
SCCF RECON,ioos:station:SCCF:51:1,2010-01-04T03:00:00Z,26.5545,-82.1715,1.711,7.94,1111122 
SCCF RECON,ioos:station:SCCF:51:1,2010-01-04T04:00:00Z,26.5545,-82.1715,1.81,8.16,1111122 
SCCF RECON,ioos:station:SCCF:51:1,2010-01-04T05:00:00Z,26.5545,-82.1715,1.918,8.01,1111122 
SCCF RECON,ioos:station:SCCF:51:1,2010-01-04T06:00:00Z,26.5545,-82.1715,2.015,7.84,1111122 
SCCF RECON,ioos:station:SCCF:51:1,2010-01-04T07:00:00Z,26.5545,-82.1715,2.075,7.78,1111122 
SCCF RECON,ioos:station:SCCF:51:1,2010-01-04T08:00:00Z,26.5545,-82.1715,2.078,7.81,1111122 
SCCF RECON,ioos:station:SCCF:51:1,2010-01-04T09:00:00Z,26.5545,-82.1715,2.039,7.77,1111122 
SCCF RECON,ioos:station:SCCF:51:1,2010-01-04T10:00:00Z,26.5545,-82.1715,1.961,7.84,1111122 
SCCF RECON,ioos:station:SCCF:51:1,2010-01-04T11:00:00Z,26.5545,-82.1715,1.85,7.92,1111122 
SCCF RECON,ioos:station:SCCF:51:1,2010-01-04T12:00:00Z,26.5545,-82.1715,1.723,7.99,1111122 
SCCF RECON,ioos:station:SCCF:51:1,2010-01-04T13:00:00Z,26.5545,-82.1715,1.608,7.97,1111122 
SCCF RECON,ioos:station:SCCF:51:1,2010-01-04T14:00:00Z,26.5545,-82.1715,1.518,8.04,1111122 
SCCF RECON,ioos:station:SCCF:51:1,2010-01-04T15:00:00Z,26.5545,-82.1715,1.458,8.13,1111122 
SCCF RECON,ioos:station:SCCF:51:1,2010-01-04T16:00:00Z,26.5545,-82.1715,1.479,8.22,1111122 
SCCF RECON,ioos:station:SCCF:51:1,2010-01-04T17:00:00Z,26.5545,-82.1715,1.568,8.39,1111122 
SCCF RECON,ioos:station:SCCF:51:1,2010-01-04T18:00:00Z,26.5545,-82.1715,1.68,8.36,1111122 
SCCF RECON,ioos:station:SCCF:51:1,2010-01-04T19:00:00Z,26.5545,-82.1715,1.808,8.16,1111122 
SCCF RECON,ioos:station:SCCF:51:1,2010-01-04T20:00:00Z,26.5545,-82.1715,1.911,8.11,1111122 
SCCF RECON,ioos:station:SCCF:51:1,2010-01-04T21:00:00Z,26.5545,-82.1715,1.993,8.08,1111122 
SCCF RECON,ioos:station:SCCF:51:1,2010-01-04T22:00:00Z,26.5545,-82.1715,1.982,8.07,1111122 
SCCF RECON,ioos:station:SCCF:51:1,2010-01-04T23:00:00Z,26.5545,-82.1715,1.935,8.15,1111122 
SCCF RECON,ioos:station:SCCF:51:1,2010-01-05T00:00:00Z,26.5545,-82.1715,1.845,8.21,1111122 
SCCF RECON,ioos:station:SCCF:51:1,2010-01-05T01:00:00Z,26.5545,-82.1715,1.766,8.23,1111122 
SCCF RECON,ioos:station:SCCF:51:1,2010-01-05T02:00:00Z,26.5545,-82.1715,1.709,8.34,1111122 
SCCF RECON,ioos:station:SCCF:51:1,2010-01-05T03:00:00Z,26.5545,-82.1715,1.695,8.32,1111122 
SCCF RECON,ioos:station:SCCF:51:1,2010-01-05T04:00:00Z,26.5545,-82.1715,1.731,8.43,1111122 
SCCF RECON,ioos:station:SCCF:51:1,2010-01-05T05:00:00Z,26.5545,-82.1715,1.796,8.49,1111122 
SCCF RECON,ioos:station:SCCF:51:1,2010-01-05T06:00:00Z,26.5545,-82.1715,1.88,8.09,1111122 
SCCF RECON,ioos:station:SCCF:51:1,2010-01-05T07:00:00Z,26.5545,-82.1715,1.982,8.29,1111122 
SCCF RECON,ioos:station:SCCF:51:1,2010-01-05T08:00:00Z,26.5545,-82.1715,2.038,7.87,1111122 
SCCF RECON,ioos:station:SCCF:51:1,2010-01-05T09:00:00Z,26.5545,-82.1715,2.042,7.95,1111122 
SCCF RECON,ioos:station:SCCF:51:1,2010-01-05T10:00:00Z,26.5545,-82.1715,2.003,8.21,1111122 
SCCF RECON,ioos:station:SCCF:51:1,2010-01-05T11:00:00Z,26.5545,-82.1715,1.919,8.06,1111122 
SCCF RECON,ioos:station:SCCF:51:1,2010-01-05T12:00:00Z,26.5545,-82.1715,1.84,8.15,1111122 
SCCF RECON,ioos:station:SCCF:51:1,2010-01-05T13:00:00Z,26.5545,-82.1715,1.722,8.15,1111122 
SCCF RECON,ioos:station:SCCF:51:1,2010-01-05T14:00:00Z,26.5545,-82.1715,1.627,8.07,1111122 
SCCF RECON,ioos:station:SCCF:51:1,2010-01-05T15:00:00Z,26.5545,-82.1715,1.556,8.1,1111122 
SCCF RECON,ioos:station:SCCF:51:1,2010-01-05T16:00:00Z,26.5545,-82.1715,1.51,8.22,1111122 
SCCF RECON,ioos:station:SCCF:51:1,2010-01-05T17:00:00Z,26.5545,-82.1715,1.534,8.33,1111122 
SCCF RECON,ioos:station:SCCF:51:1,2010-01-05T18:00:00Z,26.5545,-82.1715,1.606,8.56,1111122 
SCCF RECON,ioos:station:SCCF:51:1,2010-01-05T19:00:00Z,26.5545,-82.1715,1.705,8.8,1111122 
SCCF RECON,ioos:station:SCCF:51:1,2010-01-05T20:00:00Z,26.5545,-82.1715,1.812,8.53,1111122 
SCCF RECON,ioos:station:SCCF:51:1,2010-01-05T21:00:00Z,26.5545,-82.1715,1.864,8.66,1111122 
SCCF RECON,ioos:station:SCCF:51:1,2010-01-05T22:00:00Z,26.5545,-82.1715,1.87,8.37,1111122 
SCCF RECON,ioos:station:SCCF:51:1,2010-01-05T23:00:00Z,26.5545,-82.1715,1.831,8.29,1111122 
SCCF RECON,ioos:station:SCCF:51:1,2010-01-06T00:00:00Z,26.5545,-82.1715,1.762,8.6,1111122 
SCCF RECON,ioos:station:SCCF:51:1,2010-01-06T01:00:00Z,26.5545,-82.1715,1.688,8.6,1111122 
SCCF RECON,ioos:station:SCCF:51:1,2010-01-06T02:00:00Z,26.5545,-82.1715,1.618,8.46,1111122 
SCCF RECON,ioos:station:SCCF:51:1,2010-01-06T03:00:00Z,26.5545,-82.1715,1.558,8.5,1111122 
SCCF RECON,ioos:station:SCCF:51:1,2010-01-06T04:00:00Z,26.5545,-82.1715,1.541,8.47,1111122 
SCCF RECON,ioos:station:SCCF:51:1,2010-01-06T05:00:00Z,26.5545,-82.1715,1.559,8.44,1111122 
SCCF RECON,ioos:station:SCCF:51:1,2010-01-06T06:00:00Z,26.5545,-82.1715,1.595,8.44,1111122 
SCCF RECON,ioos:station:SCCF:51:1,2010-01-06T07:00:00Z,26.5545,-82.1715,1.65,8.38,1111122 
SCCF RECON,ioos:station:SCCF:51:1,2010-01-06T08:00:00Z,26.5545,-82.1715,1.718,8.35,1111122 
SCCF RECON,ioos:station:SCCF:51:1,2010-01-06T09:00:00Z,26.5545,-82.1715,1.791,8.37,1111122 
SCCF RECON,ioos:station:SCCF:51:1,2010-01-06T10:00:00Z,26.5545,-82.1715,1.827,8.18,1111122 
SCCF RECON,ioos:station:SCCF:51:1,2010-01-06T11:00:00Z,26.5545,-82.1715,1.818,8.3,1111122 
SCCF RECON,ioos:station:SCCF:51:1,2010-01-06T12:00:00Z,26.5545,-82.1715,1.784,8.31,1111122 
SCCF RECON,ioos:station:SCCF:51:1,2010-01-06T13:00:00Z,26.5545,-82.1715,1.723,8.33,1111122 
SCCF RECON,ioos:station:SCCF:51:1,2010-01-06T14:00:00Z,26.5545,-82.1715,1.654,8.33,1111122 
SCCF RECON,ioos:station:SCCF:51:1,2010-01-06T15:00:00Z,26.5545,-82.1715,1.601,8.44,1111122 
SCCF RECON,ioos:station:SCCF:51:1,2010-01-06T16:00:00Z,26.5545,-82.1715,1.569,8.54,1111122 
SCCF RECON,ioos:station:SCCF:51:1,2010-01-06T17:00:00Z,26.5545,-82.1715,1.583,8.67,1111122 
SCCF RECON,ioos:station:SCCF:51:1,2010-01-06T18:00:00Z,26.5545,-82.1715,1.626,8.73,1111122 
SCCF RECON,ioos:station:SCCF:51:1,2010-01-06T19:00:00Z,26.5545,-82.1715,1.701,8.69,1111122 
SCCF RECON,ioos:station:SCCF:51:1,2010-01-06T20:00:00Z,26.5545,-82.1715,1.786,8.81,1111122 
SCCF RECON,ioos:station:SCCF:51:1,2010-01-06T21:00:00Z,26.5545,-82.1715,1.874,8.62,1111122 
SCCF RECON,ioos:station:SCCF:51:1,2010-01-06T22:00:00Z,26.5545,-82.1715,1.923,8.53,1111122 
SCCF RECON,ioos:station:SCCF:51:1,2010-01-06T23:00:00Z,26.5545,-82.1715,1.932,8.44,1111122 
SCCF RECON,ioos:station:SCCF:51:1,2010-01-07T00:00:00Z,26.5545,-82.1715,1.887,8.52,1111122 
SCCF RECON,ioos:station:SCCF:51:1,2010-01-07T01:00:00Z,26.5545,-82.1715,1.814,8.55,1111122 
SCCF RECON,ioos:station:SCCF:51:1,2010-01-07T02:00:00Z,26.5545,-82.1715,1.725,8.72,1111122 
SCCF RECON,ioos:station:SCCF:51:1,2010-01-07T03:00:00Z,26.5545,-82.1715,1.649,8.72,1111122 
SCCF RECON,ioos:station:SCCF:51:1,2010-01-07T04:00:00Z,26.5545,-82.1715,1.589,8.66,1111122 
SCCF RECON,ioos:station:SCCF:51:1,2010-01-07T05:00:00Z,26.5545,-82.1715,1.55,8.67,1111122 
SCCF RECON,ioos:station:SCCF:51:1,2010-01-07T06:00:00Z,26.5545,-82.1715,1.0,-9999.0,1111122 
SCCF RECON,ioos:station:SCCF:51:1,2010-01-07T07:00:00Z,26.5545,-82.1715,1.0,-9999.0,1111122 
SCCF RECON,ioos:station:SCCF:51:1,2010-01-07T08:00:00Z,26.5545,-82.1715,1.0,-9999.0,1111122 
SCCF RECON,ioos:station:SCCF:51:1,2010-01-07T09:00:00Z,26.5545,-82.1715,1.0,-9999.0,1111122 
SCCF RECON,ioos:station:SCCF:51:1,2010-01-07T10:00:00Z,26.5545,-82.1715,1.0,-9999.0,1111122 
SCCF RECON,ioos:station:SCCF:51:1,2010-01-07T11:00:00Z,26.5545,-82.1715,1.0,-9999.0,1111122 
SCCF RECON,ioos:station:SCCF:51:1,2010-01-07T12:00:00Z,26.5545,-82.1715,1.0,-9999.0,1111122 
SCCF RECON,ioos:station:SCCF:51:1,2010-01-07T13:00:00Z,26.5545,-82.1715,1.0,-9999.0,1111122 
SCCF RECON,ioos:station:SCCF:51:1,2010-01-07T14:00:00Z,26.5545,-82.1715,1.0,-9999.0,1111122 
SCCF RECON,ioos:station:SCCF:51:1,2010-01-07T15:00:00Z,26.5545,-82.1715,1.0,-9999.0,1111122 
SCCF RECON,ioos:station:SCCF:51:1,2010-01-07T16:00:00Z,26.5545,-82.1715,1.0,-9999.0,1111122 
SCCF RECON,ioos:station:SCCF:51:1,2010-01-07T17:00:00Z,26.5545,-82.1715,1.0,-9999.0,1111122 
SCCF RECON,ioos:station:SCCF:51:1,2010-01-07T18:00:00Z,26.5545,-82.1715,1.0,-9999.0,1111122 
SCCF RECON,ioos:station:SCCF:51:1,2010-01-07T19:00:00Z,26.5545,-82.1715,1.0,-9999.0,1111122 
SCCF RECON,ioos:station:SCCF:51:1,2010-01-07T21:00:00Z,26.5545,-82.1715,2.006,8.63,1111122 
SCCF RECON,ioos:station:SCCF:51:1,2010-01-07T22:00:00Z,26.5545,-82.1715,2.07,8.68,1111122 
SCCF RECON,ioos:station:SCCF:51:1,2010-01-07T23:00:00Z,26.5545,-82.1715,2.09,8.77,1111122 
SCCF RECON,ioos:station:SCCF:51:1,2010-01-08T00:00:00Z,26.5545,-82.1715,2.06,8.75,1111122 
SCCF RECON,ioos:station:SCCF:51:1,2010-01-08T01:00:00Z,26.5545,-82.1715,2.006,8.78,1111122 
SCCF RECON,ioos:station:SCCF:51:1,2010-01-08T02:00:00Z,26.5545,-82.1715,1.93,8.93,1111122 
SCCF RECON,ioos:station:SCCF:51:1,2010-01-08T03:00:00Z,26.5545,-82.1715,1.85,8.94,1111122 
SCCF RECON,ioos:station:SCCF:51:1,2010-01-08T04:00:00Z,26.5545,-82.1715,1.76,8.83,1111122 
SCCF RECON,ioos:station:SCCF:51:1,2010-01-08T05:00:00Z,26.5545,-82.1715,1.661,8.77,1111122 
SCCF RECON,ioos:station:SCCF:51:1,2010-01-08T06:00:00Z,26.5545,-82.1715,1.59,8.72,1111122 
SCCF RECON,ioos:station:SCCF:51:1,2010-01-08T07:00:00Z,26.5545,-82.1715,1.541,8.71,1111122 
SCCF RECON,ioos:station:SCCF:51:1,2010-01-08T08:00:00Z,26.5545,-82.1715,1.559,8.72,1111122 
SCCF RECON,ioos:station:SCCF:51:1,2010-01-08T09:00:00Z,26.5545,-82.1715,1.63,8.77,1111122 
SCCF RECON,ioos:station:SCCF:51:1,2010-01-08T10:00:00Z,26.5545,-82.1715,1.709,8.74,1111122 
SCCF RECON,ioos:station:SCCF:51:1,2010-01-08T11:00:00Z,26.5545,-82.1715,1.774,8.55,1111122 
SCCF RECON,ioos:station:SCCF:51:1,2010-01-08T12:00:00Z,26.5545,-82.1715,1.839,8.61,1111122 
SCCF RECON,ioos:station:SCCF:51:1,2010-01-08T13:00:00Z,26.5545,-82.1715,1.863,8.62,1111122 
SCCF RECON,ioos:station:SCCF:51:1,2010-01-08T14:00:00Z,26.5545,-82.1715,1.867,8.59,1111122 
SCCF RECON,ioos:station:SCCF:51:1,2010-01-08T15:00:00Z,26.5545,-82.1715,1.857,8.74,1111122 
SCCF RECON,ioos:station:SCCF:51:1,2010-01-08T16:00:00Z,26.5545,-82.1715,1.881,8.74,1111122 
SCCF RECON,ioos:station:SCCF:51:1,2010-01-08T17:00:00Z,26.5545,-82.1715,1.892,8.71,1111122 
SCCF RECON,ioos:station:SCCF:51:1,2010-01-08T18:00:00Z,26.5545,-82.1715,1.894,8.7,1111122 
SCCF RECON,ioos:station:SCCF:51:1,2010-01-08T19:00:00Z,26.5545,-82.1715,1.918,8.69,1111122 
SCCF RECON,ioos:station:SCCF:51:1,2010-01-08T20:00:00Z,26.5545,-82.1715,1.97,8.63,1111122 
SCCF RECON,ioos:station:SCCF:51:1,2010-01-08T21:00:00Z,26.5545,-82.1715,2.048,8.95,1111122 
SCCF RECON,ioos:station:SCCF:51:1,2010-01-08T22:00:00Z,26.5545,-82.1715,2.13,8.62,1111122 
SCCF RECON,ioos:station:SCCF:51:1,2010-01-08T23:00:00Z,26.5545,-82.1715,2.172,8.63,1111122 
SCCF RECON,ioos:station:SCCF:51:1,2010-01-09T00:00:00Z,26.5545,-82.1715,2.135,8.61,1111122 
SCCF RECON,ioos:station:SCCF:51:1,2010-01-09T01:00:00Z,26.5545,-82.1715,2.082,8.52,1111122 
SCCF RECON,ioos:station:SCCF:51:1,2010-01-09T02:00:00Z,26.5545,-82.1715,2.013,8.7,1111122 
SCCF RECON,ioos:station:SCCF:51:1,2010-01-09T03:00:00Z,26.5545,-82.1715,1.935,8.51,1111122 
SCCF RECON,ioos:station:SCCF:51:1,2010-01-09T04:00:00Z,26.5545,-82.1715,1.838,8.87,1111122 
SCCF RECON,ioos:station:SCCF:51:1,2010-01-09T05:00:00Z,26.5545,-82.1715,1.754,8.83,1111122 
SCCF RECON,ioos:station:SCCF:51:1,2010-01-09T06:00:00Z,26.5545,-82.1715,1.652,8.75,1111122 
SCCF RECON,ioos:station:SCCF:51:1,2010-01-09T07:00:00Z,26.5545,-82.1715,1.551,8.69,1111122 
SCCF RECON,ioos:station:SCCF:51:1,2010-01-09T08:00:00Z,26.5545,-82.1715,1.476,8.64,1111122 
SCCF RECON,ioos:station:SCCF:51:1,2010-01-09T09:00:00Z,26.5545,-82.1715,1.438,8.63,1111122 
SCCF RECON,ioos:station:SCCF:51:1,2010-01-09T10:00:00Z,26.5545,-82.1715,1.463,8.6,1111122 
SCCF RECON,ioos:station:SCCF:51:1,2010-01-09T11:00:00Z,26.5545,-82.1715,1.488,8.63,1111122 
SCCF RECON,ioos:station:SCCF:51:1,2010-01-09T12:00:00Z,26.5545,-82.1715,1.52,8.63,1111122 
SCCF RECON,ioos:station:SCCF:51:1,2010-01-09T13:00:00Z,26.5545,-82.1715,1.54,8.57,1111122 
SCCF RECON,ioos:station:SCCF:51:1,2010-01-09T14:00:00Z,26.5545,-82.1715,1.578,8.55,1111122 
SCCF RECON,ioos:station:SCCF:51:1,2010-01-09T15:00:00Z,26.5545,-82.1715,1.621,8.56,1111122 
SCCF RECON,ioos:station:SCCF:51:1,2010-01-09T16:00:00Z,26.5545,-82.1715,1.622,8.61,1111122 
SCCF RECON,ioos:station:SCCF:51:1,2010-01-09T17:00:00Z,26.5545,-82.1715,1.646,8.63,1111122 
SCCF RECON,ioos:station:SCCF:51:1,2010-01-09T18:00:00Z,26.5545,-82.1715,1.651,8.63,1111122 
SCCF RECON,ioos:station:SCCF:51:1,2010-01-09T19:00:00Z,26.5545,-82.1715,1.666,8.7,1111122 
SCCF RECON,ioos:station:SCCF:51:1,2010-01-09T20:00:00Z,26.5545,-82.1715,1.672,8.74,1111122 
SCCF RECON,ioos:station:SCCF:51:1,2010-01-09T21:00:00Z,26.5545,-82.1715,1.713,8.78,1111122 
SCCF RECON,ioos:station:SCCF:51:1,2010-01-09T22:00:00Z,26.5545,-82.1715,1.768,8.85,1111122 
SCCF RECON,ioos:station:SCCF:51:1,2010-01-09T23:00:00Z,26.5545,-82.1715,1.848,8.83,1111122 
SCCF RECON,ioos:station:SCCF:51:1,2010-01-10T00:00:00Z,26.5545,-82.1715,1.913,8.73,1111122 
SCCF RECON,ioos:station:SCCF:51:1,2010-01-10T01:00:00Z,26.5545,-82.1715,1.929,8.72,1111122 
SCCF RECON,ioos:station:SCCF:51:1,2010-01-10T02:00:00Z,26.5545,-82.1715,1.906,8.64,1111122 
SCCF RECON,ioos:station:SCCF:51:1,2010-01-10T03:00:00Z,26.5545,-82.1715,1.864,8.86,1111122 
SCCF RECON,ioos:station:SCCF:51:1,2010-01-10T04:00:00Z,26.5545,-82.1715,1.789,8.6,1111122 
SCCF RECON,ioos:station:SCCF:51:1,2010-01-10T05:00:00Z,26.5545,-82.1715,1.699,8.56,1111122 
SCCF RECON,ioos:station:SCCF:51:1,2010-01-10T06:00:00Z,26.5545,-82.1715,1.61,8.6,1111122 
SCCF RECON,ioos:station:SCCF:51:1,2010-01-10T07:00:00Z,26.5545,-82.1715,1.515,8.66,1111122 
SCCF RECON,ioos:station:SCCF:51:1,2010-01-10T08:00:00Z,26.5545,-82.1715,1.417,8.75,1111122 
SCCF RECON,ioos:station:SCCF:51:1,2010-01-10T09:00:00Z,26.5545,-82.1715,1.354,8.75,1111122 
SCCF RECON,ioos:station:SCCF:51:1,2010-01-10T10:00:00Z,26.5545,-82.1715,1.314,8.78,1111122 
SCCF RECON,ioos:station:SCCF:51:1,2010-01-10T11:00:00Z,26.5545,-82.1715,1.325,8.84,1111122 
SCCF RECON,ioos:station:SCCF:51:1,2010-01-10T12:00:00Z,26.5545,-82.1715,1.358,8.88,1111122 
SCCF RECON,ioos:station:SCCF:51:1,2010-01-10T13:00:00Z,26.5545,-82.1715,1.422,9.01,1111122 
SCCF RECON,ioos:station:SCCF:51:1,2010-01-10T14:00:00Z,26.5545,-82.1715,1.493,9.02,1111122 
SCCF RECON,ioos:station:SCCF:51:1,2010-01-10T15:00:00Z,26.5545,-82.1715,1.534,9.03,1111122 
SCCF RECON,ioos:station:SCCF:51:1,2010-01-10T16:00:00Z,26.5545,-82.1715,1.56,8.85,1111122 
SCCF RECON,ioos:station:SCCF:51:1,2010-01-10T17:00:00Z,26.5545,-82.1715,1.58,8.74,1111122 
SCCF RECON,ioos:station:SCCF:51:1,2010-01-10T18:00:00Z,26.5545,-82.1715,1.571,8.97,1111122 
SCCF RECON,ioos:station:SCCF:51:1,2010-01-10T19:00:00Z,26.5545,-82.1715,1.575,9.2,1111122 
SCCF RECON,ioos:station:SCCF:51:1,2010-01-10T20:00:00Z,26.5545,-82.1715,1.585,9.25,1111122 
SCCF RECON,ioos:station:SCCF:51:1,2010-01-10T21:00:00Z,26.5545,-82.1715,1.618,9.27,1111122 
SCCF RECON,ioos:station:SCCF:51:1,2010-01-10T22:00:00Z,26.5545,-82.1715,1.67,9.26,1111122 
SCCF RECON,ioos:station:SCCF:51:1,2010-01-10T23:00:00Z,26.5545,-82.1715,1.744,9.43,1111122 
SCCF RECON,ioos:station:SCCF:51:1,2010-01-11T00:00:00Z,26.5545,-82.1715,1.824,9.45,1111122 
SCCF RECON,ioos:station:SCCF:51:1,2010-01-11T01:00:00Z,26.5545,-82.1715,1.9,9.23,1111122 
SCCF RECON,ioos:station:SCCF:51:1,2010-01-11T02:00:00Z,26.5545,-82.1715,1.925,9.13,1111122 
SCCF RECON,ioos:station:SCCF:51:1,2010-01-11T03:00:00Z,26.5545,-82.1715,1.888,9.12,1111122 
SCCF RECON,ioos:station:SCCF:51:1,2010-01-11T04:00:00Z,26.5545,-82.1715,1.813,9.15,1111122 
SCCF RECON,ioos:station:SCCF:51:1,2010-01-11T05:00:00Z,26.5545,-82.1715,1.732,8.86,1111122 
SCCF RECON,ioos:station:SCCF:51:1,2010-01-11T06:00:00Z,26.5545,-82.1715,1.626,8.84,1111122 
SCCF RECON,ioos:station:SCCF:51:1,2010-01-11T07:00:00Z,26.5545,-82.1715,1.51,8.88,1111122 
SCCF RECON,ioos:station:SCCF:51:1,2010-01-11T08:00:00Z,26.5545,-82.1715,1.409,8.94,1111122 
SCCF RECON,ioos:station:SCCF:51:1,2010-01-11T09:00:00Z,26.5545,-82.1715,1.325,9.01,1111122 
SCCF RECON,ioos:station:SCCF:51:1,2010-01-11T10:00:00Z,26.5545,-82.1715,1.27,9.04,1111122 
SCCF RECON,ioos:station:SCCF:51:1,2010-01-11T11:00:00Z,26.5545,-82.1715,1.282,9.01,1111122 
SCCF RECON,ioos:station:SCCF:51:1,2010-01-11T12:00:00Z,26.5545,-82.1715,1.343,9.04,1111122 
SCCF RECON,ioos:station:SCCF:51:1,2010-01-11T13:00:00Z,26.5545,-82.1715,1.416,8.99,1111122 
SCCF RECON,ioos:station:SCCF:51:1,2010-01-11T14:00:00Z,26.5545,-82.1715,1.514,9.07,1111122 
SCCF RECON,ioos:station:SCCF:51:1,2010-01-11T15:00:00Z,26.5545,-82.1715,1.606,9.12,1111122 
SCCF RECON,ioos:station:SCCF:51:1,2010-01-11T16:00:00Z,26.5545,-82.1715,1.692,9.07,1111122 
SCCF RECON,ioos:station:SCCF:51:1,2010-01-11T17:00:00Z,26.5545,-82.1715,1.758,9.2,1111122 
SCCF RECON,ioos:station:SCCF:51:1,2010-01-11T18:00:00Z,26.5545,-82.1715,1.81,9.24,1111122 
SCCF RECON,ioos:station:SCCF:51:1,2010-01-11T19:00:00Z,26.5545,-82.1715,1.81,9.27,1111122 
SCCF RECON,ioos:station:SCCF:51:1,2010-01-11T20:00:00Z,26.5545,-82.1715,1.784,9.26,1111122 